Location: Hradec Kralove
(50.2170°N, 15.8330°E)
Time: 06:15:40
(UTC+02:00)

TIGRISAT - Pass Details

Date: 13 August 2024
Orbit: 591 x 667 km, 97.7° (Epoch: 19 September)

Event Time Altitude Azimuth Distance (km) Brightness Sun altitude
Rises 04:32:41 0° 166° (SSE) 2,914 ? -10.5°
Reaches altitude 10° 04:34:54 10° 166° (SSE) 1,998 ? -10.2°
Maximum altitude 04:39:15 86° 253° (WSW) 625 ? -9.6°
Drops below altitude 10° 04:43:32 10° 346° (NNW) 1,969 ? -9.1°
Sets 04:45:42 0° 347° (NNW) 2,868 ? -8.8°
